Weather History for Cooperstown, ND

Change the Weather History Date:

Thursday, February 14, 2013

  Actual Average (KJMS) Record (KJMS)
Temperature  
Mean Temperature 8 °F 15 °F  
Max Temperature 19 °F 24 °F 48 °F (1921)
Min Temperature -2 °F 5 °F -37 °F (1936)
Degree Days  
Heating Degree Days 56 50  
Month to date heating degree days 731  
Since 1 July heating degree days 6093  
Cooling Degree Days 0 0  
Month to date cooling degree days 0  
Year to date cooling degree days 0  
Moisture  
Dew Point 8 °F    
Average Humidity 91    
Maximum Humidity 100    
Minimum Humidity 79    
Precipitation  
Precipitation 0.16 in 0.01 in 0.15 in (1979)
Month to date precipitation 0.15  
Year to date precipitation 0.60  
Sea Level Pressure  
Sea Level Pressure 30.05 in    
Wind  
Wind Speed 11 mph (NNW)    
Max Wind Speed 18 mph    
Max Gust Speed 21 mph    
Visibility 9 miles    
Events Rain , Snow    
T = Trace of Precipitation, MM = Missing Value Source: NWS Daily Summary

Daily Weather History Graph

Daily Weather History Graph

Search for Another Location

Airport:

Trip Planner

Search our weather history database for the weather conditions in past years. The results will help you decide how hot, cold, wet, or windy it might be!

Date:

Astronomy

Feb. 14, 2013 Rise Set
Actual Time 7:38 AM CST 5:55 PM CST
Civil Twilight 7:07 AM CST 6:26 PM CST
Nautical Twilight 6:31 AM CST 7:02 PM CST
Astronomical Twilight 5:55 AM CST 7:38 PM CST
Moon 9:18 AM CST (2/14) 11:25 PM CST (2/14)
Length of Visible Light 11h 19m
Length of Day
10h 16m
Waxing Crescent, 22% of the Moon is Illuminated
Feb 14
Waxing Crescent
Feb 17
First Quarter
Feb 25
Full
Mar 4
Last Quarter
Mar 11
New

Hourly Weather History & Observations

Time (CST) Temp. Windchill Dew Point Humidity Pressure Visibility Wind Dir Wind Speed Gust Speed Precip Events Conditions
12:15 AM 15.8 °F 5.1 °F 15.8 °F 100% 29.77 in 10.0 mi North 8.1 mph - N/A   Overcast
12:35 AM 17.6 °F 9.3 °F 17.6 °F 100% 29.77 in 8.0 mi North 5.8 mph - N/A Snow Light Snow
12:55 AM 15.8 °F 8.6 °F 15.8 °F 100% 29.78 in 9.0 mi North 4.6 mph - N/A Snow Light Snow
1:15 AM 17.6 °F 10.7 °F 17.6 °F 100% 29.78 in 7.0 mi North 4.6 mph - N/A Snow Light Snow
1:35 AM 17.6 °F 9.3 °F 17.6 °F 100% 29.79 in 4.0 mi North 5.8 mph - N/A Snow Light Snow
1:55 AM 19.4 °F 11.5 °F 19.4 °F 100% 29.80 in 4.0 mi NNE 5.8 mph - 0.02 in Snow Light Snow
2:15 AM 19.4 °F 8.6 °F 19.4 °F 100% 29.81 in 3.0 mi NNE 9.2 mph - 0.01 in Snow Light Snow
2:35 AM 19.4 °F 6.0 °F 19.4 °F 100% 29.81 in 3.0 mi NNE 13.8 mph - 0.03 in Snow Light Snow
2:55 AM 19.4 °F 5.0 °F 17.6 °F 93% 29.81 in 3.0 mi NE 16.1 mph - 0.06 in Snow Light Snow
3:15 AM 17.6 °F 3.7 °F 17.6 °F 100% 29.81 in 5.0 mi NNE 13.8 mph - N/A Snow Light Snow
3:35 AM 17.6 °F 3.7 °F 17.6 °F 100% 29.81 in 7.0 mi NE 13.8 mph - N/A Rain Light Freezing Rain
3:55 AM 17.6 °F 4.3 °F 17.6 °F 100% 29.82 in 3.0 mi NE 12.7 mph - 0.01 in Snow Light Snow
4:15 AM 17.6 °F 4.3 °F 17.6 °F 100% 29.83 in 1.8 mi NE 12.7 mph - 0.01 in Snow Light Snow
4:35 AM 17.6 °F 3.2 °F 17.6 °F 100% 29.84 in 1.8 mi NNE 15.0 mph - 0.03 in Snow Light Snow
4:55 AM 17.6 °F 2.7 °F 17.6 °F 100% 29.85 in 2.0 mi NNE 16.1 mph 20.7 mph 0.06 in Snow Light Snow
5:55 AM 15.8 °F 1.4 °F 14.0 °F 93% 29.88 in 10.0 mi NNE 13.8 mph - 0.01 in   Overcast
6:15 AM 15.8 °F 0.3 °F 14.0 °F 93% 29.89 in 10.0 mi NE 16.1 mph - N/A   Mostly Cloudy
6:35 AM 14.0 °F -2.5 °F 12.2 °F 93% 29.90 in 10.0 mi NNE 17.3 mph - N/A   Overcast
6:55 AM 14.0 °F -0.8 °F 10.4 °F 86% 29.92 in 10.0 mi NNE 13.8 mph - N/A   Overcast
7:15 AM 12.2 °F -2.5 °F 10.4 °F 92% 29.94 in 10.0 mi NNE 12.7 mph - N/A   Overcast
7:35 AM 12.2 °F -0.2 °F 10.4 °F 92% 29.95 in 10.0 mi North 9.2 mph - N/A   Overcast
7:55 AM 12.2 °F -1.8 °F 10.4 °F 92% 29.96 in 10.0 mi North 11.5 mph - N/A   Overcast
8:15 AM 12.2 °F -3.7 °F 8.6 °F 85% 29.98 in 10.0 mi North 15.0 mph - N/A   Scattered Clouds
8:35 AM 10.4 °F -6.6 °F 8.6 °F 92% 30.00 in 10.0 mi North 16.1 mph - N/A   Partly Cloudy
8:55 AM 10.4 °F -7.7 °F 8.6 °F 92% 30.01 in 10.0 mi NNE 18.4 mph - N/A   Partly Cloudy
9:15 AM 10.4 °F -7.7 °F 8.6 °F 92% 30.02 in 10.0 mi North 18.4 mph - N/A   Mostly Cloudy
9:55 AM 10.4 °F -6.0 °F 8.6 °F 92% 30.05 in 10.0 mi North 15.0 mph - N/A   Mostly Cloudy
10:15 AM 10.4 °F -7.2 °F 8.6 °F 92% 30.07 in 10.0 mi North 17.3 mph - N/A   Mostly Cloudy
10:35 AM 10.4 °F -6.0 °F 6.8 °F 85% 30.08 in 10.0 mi North 15.0 mph - N/A   Mostly Cloudy
10:55 AM 10.4 °F -5.4 °F 6.8 °F 85% 30.09 in 10.0 mi North 13.8 mph - N/A   Mostly Cloudy
11:15 AM 10.4 °F -6.0 °F 6.8 °F 85% 30.10 in 10.0 mi North 15.0 mph - N/A   Partly Cloudy
11:35 AM 10.4 °F -5.4 °F 6.8 °F 85% 30.12 in 10.0 mi North 13.8 mph - N/A   Clear
11:55 AM 10.4 °F -6.6 °F 6.8 °F 85% 30.12 in 10.0 mi North 16.1 mph - N/A   Clear
12:15 PM 8.6 °F -10.0 °F 5.0 °F 85% 30.14 in 10.0 mi NNW 18.4 mph - N/A   Clear
12:35 PM 8.6 °F -8.3 °F 5.0 °F 85% 30.15 in 10.0 mi NNW 15.0 mph - N/A   Clear
12:55 PM 8.6 °F -8.3 °F 5.0 °F 85% 30.14 in 10.0 mi NNW 15.0 mph - N/A   Partly Cloudy
1:15 PM 8.6 °F -7.7 °F 5.0 °F 85% 30.15 in 10.0 mi NNW 13.8 mph - N/A   Clear
1:55 PM 8.6 °F -8.9 °F 5.0 °F 85% 30.15 in 10.0 mi NNW 16.1 mph - N/A   Clear
2:15 PM 8.6 °F -7.7 °F 5.0 °F 85% 30.16 in 10.0 mi NW 13.8 mph 18.4 mph N/A   Clear
2:35 PM 8.6 °F -7.7 °F 5.0 °F 85% 30.17 in 10.0 mi NW 13.8 mph - N/A   Clear
2:55 PM 10.4 °F -5.4 °F 5.0 °F 79% 30.16 in 10.0 mi NW 13.8 mph - N/A   Clear
3:15 PM 10.4 °F -3.3 °F 5.0 °F 79% 30.17 in 10.0 mi NW 10.4 mph - N/A   Clear
3:35 PM 10.4 °F -2.4 °F 5.0 °F 79% 30.17 in 10.0 mi NW 9.2 mph - N/A   Clear
3:55 PM 10.4 °F -5.4 °F 5.0 °F 79% 30.18 in 10.0 mi NW 13.8 mph - N/A   Clear
4:15 PM 10.4 °F -5.4 °F 6.8 °F 85% 30.19 in 10.0 mi NW 13.8 mph - N/A   Scattered Clouds
4:35 PM 8.6 °F -7.0 °F 5.0 °F 85% 30.19 in 10.0 mi WNW 12.7 mph - N/A   Scattered Clouds
4:55 PM 8.6 °F -7.0 °F 5.0 °F 85% 30.19 in 10.0 mi WNW 12.7 mph - N/A   Clear
5:15 PM 6.8 °F -8.6 °F 1.4 °F 79% 30.19 in 10.0 mi NW 11.5 mph - N/A   Clear
5:35 PM 6.8 °F -6.9 °F 1.4 °F 79% 30.20 in 10.0 mi WNW 9.2 mph - N/A   Clear
5:55 PM 5.0 °F -9.1 °F 1.4 °F 85% 30.20 in 10.0 mi WNW 9.2 mph - N/A   Mostly Cloudy
6:15 PM 5.0 °F -10.8 °F 1.4 °F 85% 30.20 in 10.0 mi WNW 11.5 mph - N/A   Mostly Cloudy
6:35 PM 6.8 °F -7.8 °F 3.2 °F 85% 30.21 in 10.0 mi WNW 10.4 mph - N/A   Mostly Cloudy
6:55 PM 8.6 °F -3.7 °F 6.8 °F 92% 30.21 in 10.0 mi WNW 8.1 mph - N/A   Mostly Cloudy
7:15 PM 8.6 °F -4.7 °F 6.8 °F 92% 30.21 in 10.0 mi WNW 9.2 mph - N/A   Overcast
7:35 PM 6.8 °F -8.6 °F 5.0 °F 92% 30.21 in 10.0 mi WNW 11.5 mph - N/A   Overcast
7:55 PM 6.8 °F -6.9 °F 5.0 °F 92% 30.21 in 10.0 mi NW 9.2 mph - N/A   Overcast
8:15 PM 8.6 °F -6.3 °F 6.8 °F 92% 30.21 in 10.0 mi NW 11.5 mph - N/A   Mostly Cloudy
8:35 PM 8.6 °F -4.7 °F 6.8 °F 92% 30.21 in 10.0 mi NW 9.2 mph - N/A   Overcast
8:55 PM 5.0 °F -11.6 °F 5.0 °F 100% 30.21 in 10.0 mi WNW 12.7 mph - N/A   Scattered Clouds
9:15 PM 1.4 °F -13.5 °F 1.4 °F 100% 30.21 in 10.0 mi WNW 9.2 mph - N/A   Clear
9:55 PM 1.4 °F -14.5 °F 1.4 °F 100% 30.21 in 10.0 mi NW 10.4 mph - N/A   Clear
10:15 PM 1.4 °F -12.5 °F -0.4 °F 92% 30.21 in 10.0 mi NW 8.1 mph - N/A   Clear
10:35 PM -0.4 °F -16.7 °F -0.4 °F 100% 30.22 in 10.0 mi NW 10.4 mph - N/A   Clear
10:55 PM 1.4 °F -13.5 °F -0.4 °F 92% 30.22 in 10.0 mi NW 9.2 mph - N/A   Clear
11:15 PM -2.2 °F -14.2 °F -4.0 °F 92% 30.22 in 10.0 mi NW 5.8 mph - N/A   Clear
11:35 PM -2.2 °F -15.6 °F -4.0 °F 92% 30.22 in 10.0 mi NW 6.9 mph - N/A   Clear
11:55 PM -2.2 °F -12.5 °F -4.0 °F 92% 30.23 in 10.0 mi WNW 4.6 mph - N/A   Clear